When you browse on this site, cookies collect data to enhance your experience and personalize the content and advertising you see.
Visit our Privacy Policy to learn more. By continuing to use the site, you agree to this use of cookies and data.

Meteo pe oră la Dziegielow

Astăzi, 19 Septembrie, Sâmbătă

Timp Temperatura Precipitaţii Vânt Presiune Umiditate
00:00 +10°C° 0 mm 1 m/s 740 mmHg 65%
01:00 +9°C° 0 mm 1 m/s 740 mmHg 67%
02:00 +9°C° 0 mm 1 m/s 740 mmHg 66%
03:00 +9°C° 0 mm 1 m/s 740 mmHg 66%
04:00 +9°C° 0 mm 1 m/s 739 mmHg 65%
05:00 +9°C° 0 mm 1 m/s 740 mmHg 63%
06:00 +10°C° 0 mm 1 m/s 740 mmHg 60%
07:00 +11°C° 0 mm 1 m/s 740 mmHg 53%
08:00 +13°C° 0 mm 1 m/s 740 mmHg 48%
09:00 +15°C° 0 mm 1 m/s 739 mmHg 43%
10:00 +19°C° 0 mm 1 m/s 739 mmHg 38%
11:00 +20°C° 0 mm 1 m/s 739 mmHg 37%
12:00 +21°C° 0 mm 1 m/s 739 mmHg 35%
13:00 +22°C° 0 mm 1 m/s 738 mmHg 34%
14:00 +21°C° 0 mm 1 m/s 738 mmHg 37%
15:00 +21°C° 0 mm 1 m/s 738 mmHg 41%
16:00 +21°C° 0 mm 1 m/s 737 mmHg 45%
17:00 +19°C° 0 mm 1 m/s 737 mmHg 51%
18:00 +15°C° 0 mm 1 m/s 737 mmHg 58%
19:00 +13°C° 0 mm 1 m/s 736 mmHg 64%
20:00 +13°C° 0 mm 1 m/s 737 mmHg 64%
21:00 +13°C° 0 mm 1 m/s 737 mmHg 65%
22:00 +12°C° 0 mm 1 m/s 737 mmHg 65%
23:00 +12°C° 0 mm 1 m/s 737 mmHg 66%

Mâine, 20 Septembrie, Duminică

Timp Temperatura Precipitaţii Vânt Presiune Umiditate
00:00 +12°C° 0 mm 1 m/s 736 mmHg 67%
01:00 +12°C° 0 mm 1 m/s 736 mmHg 68%
02:00 +11°C° 0 mm 1 m/s 736 mmHg 68%
03:00 +11°C° 0 mm 1 m/s 736 mmHg 69%
04:00 +11°C° 0 mm 1 m/s 736 mmHg 69%
05:00 +12°C° 0 mm 1 m/s 736 mmHg 68%
06:00 +12°C° 0 mm 1 m/s 736 mmHg 67%
07:00 +13°C° 0 mm 1 m/s 736 mmHg 66%
08:00 +15°C° 0 mm 1 m/s 736 mmHg 61%
09:00 +18°C° 0 mm 1 m/s 736 mmHg 55%
10:00 +20°C° 0 mm 1 m/s 736 mmHg 49%
11:00 +21°C° 0 mm 1 m/s 736 mmHg 47%
12:00 +22°C° 0 mm 1 m/s 736 mmHg 45%
13:00 +23°C° 0 mm 1 m/s 736 mmHg 42%
14:00 +22°C° 0 mm 1 m/s 735 mmHg 45%
15:00 +22°C° 0 mm 1 m/s 735 mmHg 48%
16:00 +22°C° 0 mm 1 m/s 735 mmHg 52%
17:00 +20°C° 0 mm 1 m/s 735 mmHg 58%
18:00 +18°C° 0 mm 1 m/s 735 mmHg 64%
19:00 +15°C° 0 mm 1 m/s 734 mmHg 71%
20:00 +15°C° 0 mm 1 m/s 735 mmHg 71%
21:00 +14°C° 0 mm 1 m/s 735 mmHg 71%
22:00 +14°C° 0 mm 1 m/s 735 mmHg 71%
23:00 +14°C° 0 mm 1 m/s 735 mmHg 69%

Poimâine, 21 Septembrie, Luni

Timp Temperatura Precipitaţii Vânt Presiune Umiditate
00:00 +14°C° 0 mm 1 m/s 735 mmHg 68%
01:00 +13°C° 0 mm 1 m/s 734 mmHg 66%
02:00 +13°C° 0 mm 1 m/s 734 mmHg 64%
03:00 +13°C° 0 mm 1 m/s 734 mmHg 63%
04:00 +13°C° 0 mm 1 m/s 734 mmHg 61%
05:00 +14°C° 0 mm 1 m/s 734 mmHg 61%
06:00 +15°C° 0 mm 1 m/s 735 mmHg 61%
07:00 +15°C° 0 mm 1 m/s 735 mmHg 60%
08:00 +19°C° 0 mm 1 m/s 735 mmHg 53%
09:00 +21°C° 0 mm 1 m/s 735 mmHg 47%
10:00 +24°C° 0 mm 1 m/s 735 mmHg 40%
11:00 +24°C° 0 mm 1 m/s 735 mmHg 38%
12:00 +25°C° 0 mm 2 m/s 735 mmHg 36%
13:00 +26°C° 0 mm 2 m/s 735 mmHg 34%
14:00 +26°C° 0 mm 2 m/s 735 mmHg 38%
15:00 +25°C° 0 mm 1 m/s 735 mmHg 42%
16:00 +25°C° 0 mm 1 m/s 734 mmHg 46%
17:00 +23°C° 0 mm 1 m/s 734 mmHg 50%
18:00 +21°C° 0 mm 1 m/s 734 mmHg 55%
19:00 +19°C° 0 mm 1 m/s 734 mmHg 60%
20:00 +18°C° 0 mm 1 m/s 734 mmHg 60%
21:00 +18°C° 0 mm 1 m/s 734 mmHg 61%
22:00 +16°C° 0 mm 2 m/s 734 mmHg 61%
23:00 +16°C° 0 mm 2 m/s 734 mmHg 61%

22 Septembrie, Marţi

Timp Temperatura Precipitaţii Vânt Presiune Umiditate
00:00 +16°C° 0 mm 2 m/s 734 mmHg 60%
01:00 +15°C° 0 mm 2 m/s 733 mmHg 60%
02:00 +15°C° 0 mm 2 m/s 733 mmHg 60%
03:00 +15°C° 0 mm 2 m/s 733 mmHg 59%
04:00 +15°C° 0 mm 2 m/s 733 mmHg 59%
05:00 +16°C° 0 mm 2 m/s 733 mmHg 59%
06:00 +16°C° 0 mm 2 m/s 733 mmHg 59%
07:00 +17°C° 0 mm 2 m/s 733 mmHg 59%
08:00 +19°C° 0 mm 2 m/s 733 mmHg 52%
09:00 +23°C° 0 mm 2 m/s 733 mmHg 45%
10:00 +25°C° 0 mm 3 m/s 733 mmHg 38%
11:00 +26°C° 0 mm 3 m/s 733 mmHg 37%
12:00 +26°C° 0 mm 3 m/s 733 mmHg 36%
13:00 +27°C° 0 mm 3 m/s 732 mmHg 35%
14:00 +26°C° 0 mm 3 m/s 732 mmHg 39%
15:00 +26°C° 0 mm 2 m/s 731 mmHg 42%
16:00 +25°C° 0 mm 2 m/s 731 mmHg 46%
17:00 +23°C° 0 mm 2 m/s 731 mmHg 50%
18:00 +20°C° 0 mm 2 m/s 730 mmHg 54%
19:00 +18°C° 0 mm 2 m/s 730 mmHg 59%
20:00 +18°C° 0 mm 2 m/s 730 mmHg 60%
21:00 +17°C° 0 mm 2 m/s 730 mmHg 60%
22:00 +17°C° 0 mm 2 m/s 730 mmHg 61%
23:00 +17°C° 0 mm 2 m/s 729 mmHg 61%

23 Septembrie, Miercuri

Timp Temperatura Precipitaţii Vânt Presiune Umiditate
00:00 +16°C° 0 mm 2 m/s 729 mmHg 61%
01:00 +16°C° 0 mm 2 m/s 729 mmHg 61%
02:00 +16°C° 0 mm 2 m/s 728 mmHg 61%
03:00 +16°C° 0 mm 2 m/s 728 mmHg 62%
04:00 +16°C° 0 mm 2 m/s 728 mmHg 62%
05:00 +16°C° 0 mm 2 m/s 728 mmHg 62%
06:00 +17°C° 0 mm 2 m/s 728 mmHg 63%
07:00 +17°C° 0 mm 2 m/s 728 mmHg 63%
08:00 +19°C° 0 mm 2 m/s 728 mmHg 59%
09:00 +21°C° 0 mm 2 m/s 728 mmHg 54%
10:00 +24°C° 0 mm 3 m/s 728 mmHg 50%
11:00 +25°C° 0 mm 3 m/s 728 mmHg 50%
12:00 +25°C° 0 mm 4 m/s 727 mmHg 49%
13:00 +26°C° 0 mm 4 m/s 727 mmHg 49%
14:00 +25°C° 0.1 mm 4 m/s 727 mmHg 53%
15:00 +25°C° 0.1 mm 3 m/s 727 mmHg 57%
16:00 +24°C° 0.1 mm 3 m/s 726 mmHg 60%
17:00 +21°C° 0.6 mm 2 m/s 726 mmHg 68%
18:00 +20°C° 0.6 mm 2 m/s 726 mmHg 76%
19:00 +19°C° 0.6 mm 1 m/s 726 mmHg 83%
20:00 +18°C° 0.5 mm 2 m/s 726 mmHg 85%
21:00 +17°C° 0.5 mm 2 m/s 726 mmHg 87%
22:00 +17°C° 0.5 mm 2 m/s 726 mmHg 90%
23:00 +17°C° 0.4 mm 2 m/s 726 mmHg 90%

24 Septembrie, Joi

Timp Temperatura Precipitaţii Vânt Presiune Umiditate
00:00 +17°C° 0.4 mm 2 m/s 726 mmHg 90%
01:00 +17°C° 0.4 mm 2 m/s 726 mmHg 90%
02:00 +17°C° 0.2 mm 2 m/s 726 mmHg 90%
03:00 +17°C° 0.2 mm 2 m/s 726 mmHg 90%
04:00 +17°C° 0.2 mm 2 m/s 726 mmHg 90%
05:00 +17°C° 0.1 mm 2 m/s 726 mmHg 90%
06:00 +17°C° 0.1 mm 2 m/s 726 mmHg 89%
07:00 +17°C° 0.1 mm 2 m/s 727 mmHg 89%
08:00 +18°C° 0.1 mm 2 m/s 727 mmHg 84%
09:00 +20°C° 0.1 mm 2 m/s 727 mmHg 79%
10:00 +21°C° 0.1 mm 2 m/s 727 mmHg 74%
11:00 +22°C° 0.5 mm 1 m/s 727 mmHg 70%
12:00 +23°C° 0.5 mm 1 m/s 727 mmHg 67%
13:00 +24°C° 0.5 mm 1 m/s 727 mmHg 64%
14:00 +23°C° 0.5 mm 1 m/s 727 mmHg 67%
15:00 +23°C° 0.5 mm 1 m/s 727 mmHg 70%
16:00 +23°C° 0.5 mm 1 m/s 726 mmHg 72%
17:00 +21°C° 0.1 mm 1 m/s 726 mmHg 76%
18:00 +20°C° 0.1 mm 1 m/s 726 mmHg 80%
19:00 +19°C° 0.1 mm 1 m/s 725 mmHg 84%
20:00 +17°C° 0 mm 2 m/s 725 mmHg 86%
21:00 +17°C° 0 mm 2 m/s 725 mmHg 87%
22:00 +16°C° 0 mm 2 m/s 725 mmHg 88%
23:00 +16°C° 0 mm 2 m/s 724 mmHg 87%
Arată mai mult